KKP5745 PHNL-YSSY

Flight info

Callsign KKP5745
Flight time N/A
Altitude 28000
Route OPIHI3 CHOKO DCT 1916N16209W 1444N16706W/N0499F300 0724N17247W 0452N17438W 0139N17708W 0124S17936W/N0495F320 0151S18000W 0334S17831E 0755S17500E 1151S17151E 1553S16845E 1906S16622E/N0488F340 2350S16316E 2408S16300E 2634S16046E 3020S15742E DCT ABARB DCT RIKNI N774 MARLN
Aircraft MD11/H-SDE1E2E3FGHIJ2J3J4J5M1RWXY/LB1D1

Departure

Time 2026-05-01 09:30
Airport Daniel K. Inouye International Airport (PHNL)

Arrival

Time N/A
Airport Sydney Kingsford Smith International Airport (YSSY)
Time Latitude Longitude Altitude Speed Heading
2026-05-01 08:15 21.31824 -157.91642 31 ft 0 kts 143°
2026-05-01 08:25 21.31825 -157.91642 31 ft 0 kts 143°
2026-05-01 08:31 21.31825 -157.91643 31 ft 0 kts 143°
2026-05-01 08:41 21.31826 -157.91643 31 ft 0 kts 143°
2026-05-01 08:47 21.31826 -157.91644 31 ft 0 kts 143°
2026-05-01 08:55 21.31827 -157.91644 31 ft 0 kts 143°
2026-05-01 09:03 21.31827 -157.91645 31 ft 0 kts 143°
2026-05-01 09:10 21.31828 -157.91645 22 ft 0 kts 143°
2026-05-01 09:16 21.31824 -157.91645 31 ft 1 kts 162°
2026-05-01 09:17 21.31853 -157.91685 31 ft 11 kts 322°
2026-05-01 09:17 21.31878 -157.91727 31 ft 2 kts 274°
2026-05-01 09:17 21.31818 -157.91810 31 ft 15 kts 215°
2026-05-01 09:18 21.31718 -157.91896 31 ft 22 kts 238°
2026-05-01 09:18 21.31588 -157.92136 32 ft 14 kts 239°
2026-05-01 09:19 21.31518 -157.92251 30 ft 6 kts 231°
2026-05-01 09:19 21.31496 -157.92282 29 ft 7 kts 232°
2026-05-01 09:19 21.31453 -157.92343 32 ft 14 kts 230°
2026-05-01 09:20 21.31266 -157.92558 32 ft 21 kts 197°
2026-05-01 09:20 21.31051 -157.92385 32 ft 24 kts 141°
2026-05-01 09:21 21.30971 -157.92436 32 ft 10 kts 266°
2026-05-01 09:21 21.30970 -157.92531 32 ft 16 kts 271°
2026-05-01 09:21 21.30970 -157.92863 32 ft 29 kts 270°
2026-05-01 09:22 21.30969 -157.93376 32 ft 40 kts 270°
2026-05-01 09:22 21.30970 -157.93913 32 ft 32 kts 270°
2026-05-01 09:23 21.30970 -157.94140 32 ft 29 kts 270°
2026-05-01 09:23 21.30970 -157.94513 32 ft 22 kts 271°
2026-05-01 09:24 21.30932 -157.94570 32 ft 3 kts 181°
2026-05-01 09:24 21.30906 -157.94569 32 ft 5 kts 178°
2026-05-01 09:24 21.30796 -157.94568 32 ft 0 kts 180°
2026-05-01 09:25 21.30795 -157.94568 32 ft 1 kts 180°
2026-05-01 09:25 21.30709 -157.94561 31 ft 7 kts 159°
2026-05-01 09:26 21.30700 -157.94548 32 ft 1 kts 116°
2026-05-01 09:26 21.30682 -157.94466 34 ft 0 kts 91°
2026-05-01 09:28 21.30682 -157.94452 34 ft 13 kts 91°
2026-05-01 09:28 21.30681 -157.94073 36 ft 89 kts 89°
2026-05-01 09:28 21.30680 -157.93156 26 ft 155 kts 90°
2026-05-01 09:29 21.30690 -157.90299 167 ft 209 kts 87°
2026-05-01 09:29 21.30714 -157.88745 599 ft 207 kts 95°
2026-05-01 09:30 21.29173 -157.86578 436 ft 192 kts 151°
2026-05-01 09:30 21.27787 -157.86232 400 ft 221 kts 175°
2026-05-01 09:30 21.25003 -157.87992 1184 ft 272 kts 226°
2026-05-01 09:31 21.23836 -157.89493 1404 ft 300 kts 232°
2026-05-01 09:31 21.22567 -157.91284 2074 ft 303 kts 225°
2026-05-01 09:31 21.19386 -157.93879 4017 ft 280 kts 209°
2026-05-01 09:32 21.17767 -157.95012 4338 ft 282 kts 208°
2026-05-01 09:32 21.14435 -157.97247 5127 ft 283 kts 207°
2026-05-01 09:32 21.12756 -157.98335 5502 ft 283 kts 207°
2026-05-01 09:33 21.11061 -157.99416 5833 ft 284 kts 207°
2026-05-01 09:33 21.09394 -158.00553 6180 ft 286 kts 214°
2026-05-01 09:33 21.07221 -158.04120 6744 ft 296 kts 253°
2026-05-01 09:34 21.06731 -158.06261 7020 ft 297 kts 257°
2026-05-01 09:34 21.06308 -158.08432 7276 ft 299 kts 258°
2026-05-01 09:34 21.05598 -158.12836 7800 ft 301 kts 264°
2026-05-01 09:35 21.05390 -158.15071 8033 ft 302 kts 265°
2026-05-01 09:35 21.05015 -158.19552 8560 ft 302 kts 265°
2026-05-01 09:35 21.04824 -158.21796 8791 ft 303 kts 265°
2026-05-01 09:36 21.04631 -158.24048 9035 ft 303 kts 266°
2026-05-01 09:36 21.04435 -158.26295 9267 ft 303 kts 266°
2026-05-01 09:36 21.04241 -158.28510 9497 ft 302 kts 266°
2026-05-01 09:36 21.04044 -158.30753 9707 ft 303 kts 266°
2026-05-01 09:37 21.03846 -158.32996 9924 ft 303 kts 266°
2026-05-01 09:37 21.03512 -158.36761 10228 ft 304 kts 266°
2026-05-01 09:37 21.03312 -158.39012 10416 ft 304 kts 266°
2026-05-01 09:38 21.02843 -158.44261 10828 ft 305 kts 266°
2026-05-01 09:38 21.02641 -158.46524 11005 ft 306 kts 266°
2026-05-01 09:38 21.02437 -158.48793 11163 ft 306 kts 266°
2026-05-01 09:39 21.02029 -158.53334 11478 ft 307 kts 266°
2026-05-01 09:39 21.01825 -158.55611 11633 ft 308 kts 266°
2026-05-01 09:39 21.01688 -158.57128 11714 ft 309 kts 266°
2026-05-01 09:40 21.01414 -158.60169 11879 ft 310 kts 266°
2026-05-01 09:40 21.00996 -158.64787 12118 ft 313 kts 266°
2026-05-01 09:40 21.00856 -158.66326 12209 ft 313 kts 266°
2026-05-01 09:41 21.00574 -158.69439 12371 ft 314 kts 266°
2026-05-01 09:41 21.00149 -158.74100 12615 ft 315 kts 266°
2026-05-01 09:41 20.99935 -158.76439 12736 ft 316 kts 266°
2026-05-01 09:42 20.99793 -158.77993 12827 ft 316 kts 266°
2026-05-01 09:42 20.99579 -158.80337 12951 ft 317 kts 266°
2026-05-01 09:42 20.99149 -158.85027 13203 ft 317 kts 266°
2026-05-01 09:43 20.98717 -158.89722 13459 ft 317 kts 265°
2026-05-01 09:43 20.98501 -158.92070 13585 ft 317 kts 266°
2026-05-01 09:43 20.98283 -158.94420 13712 ft 317 kts 266°
2026-05-01 09:44 20.97841 -158.99114 13962 ft 317 kts 264°
2026-05-01 09:44 20.97388 -159.01425 14064 ft 318 kts 256°
2026-05-01 09:44 20.96737 -159.03685 14189 ft 318 kts 253°
2026-05-01 09:45 20.96030 -159.05933 14299 ft 318 kts 252°
2026-05-01 09:45 20.94596 -159.10425 14520 ft 318 kts 252°
2026-05-01 09:45 20.93885 -159.12664 14643 ft 318 kts 252°
2026-05-01 09:46 20.93186 -159.14879 14758 ft 318 kts 253°
2026-05-01 09:46 20.92480 -159.17119 14877 ft 318 kts 253°
2026-05-01 09:46 20.91775 -159.19360 14992 ft 318 kts 253°
2026-05-01 09:46 20.91072 -159.21596 15108 ft 317 kts 253°
2026-05-01 09:47 20.90370 -159.23832 15223 ft 317 kts 253°
2026-05-01 09:47 20.89667 -159.26068 15340 ft 316 kts 253°
2026-05-01 09:47 20.88966 -159.28298 15458 ft 316 kts 253°
2026-05-01 09:47 20.88266 -159.30526 15572 ft 316 kts 253°
2026-05-01 09:48 20.87566 -159.32752 15696 ft 315 kts 253°
2026-05-01 09:48 20.86868 -159.34970 15808 ft 315 kts 253°
2026-05-01 09:48 20.86169 -159.37189 15928 ft 314 kts 253°
2026-05-01 09:48 20.85472 -159.39400 16050 ft 313 kts 253°
2026-05-01 09:49 20.84776 -159.41607 16162 ft 313 kts 253°
2026-05-01 09:49 20.84091 -159.43780 16285 ft 312 kts 253°
2026-05-01 09:49 20.83399 -159.45976 16407 ft 311 kts 253°
2026-05-01 09:49 20.82709 -159.48163 16522 ft 310 kts 253°
2026-05-01 09:50 20.82019 -159.50346 16650 ft 309 kts 253°
2026-05-01 09:50 20.81333 -159.52520 16771 ft 308 kts 253°
2026-05-01 09:50 20.80648 -159.54685 16893 ft 307 kts 253°
2026-05-01 09:50 20.79965 -159.56845 17013 ft 308 kts 253°
2026-05-01 09:51 20.79269 -159.59049 17127 ft 318 kts 253°
2026-05-01 09:51 20.78548 -159.61336 17272 ft 331 kts 253°
2026-05-01 09:51 20.77790 -159.63713 17414 ft 345 kts 253°
2026-05-01 09:51 20.76998 -159.66188 17549 ft 359 kts 253°
2026-05-01 09:52 20.76173 -159.68764 17693 ft 373 kts 253°
2026-05-01 09:52 20.75319 -159.71432 17830 ft 386 kts 252°
2026-05-01 09:52 20.74437 -159.74188 17972 ft 398 kts 253°
2026-05-01 09:52 20.73529 -159.77025 18118 ft 409 kts 253°
2026-05-01 09:53 20.72597 -159.79940 18260 ft 421 kts 253°
2026-05-01 09:53 20.71644 -159.82918 18658 ft 421 kts 253°
2026-05-01 09:53 20.70714 -159.85822 19243 ft 417 kts 253°
2026-05-01 09:53 20.69768 -159.88783 19764 ft 415 kts 253°
2026-05-01 09:54 20.68848 -159.91666 20200 ft 415 kts 253°
2026-05-01 09:54 20.67915 -159.94595 20620 ft 416 kts 254°
2026-05-01 09:54 20.66981 -159.97527 21009 ft 418 kts 253°
2026-05-01 09:54 20.66044 -160.00474 21360 ft 420 kts 254°
2026-05-01 09:55 20.65106 -160.03438 21725 ft 422 kts 254°
2026-05-01 09:55 20.64171 -160.06412 22081 ft 423 kts 254°
2026-05-01 09:55 20.63239 -160.09398 22412 ft 425 kts 254°
2026-05-01 09:55 20.62301 -160.12407 22648 ft 430 kts 254°
2026-05-01 09:56 20.61307 -160.15443 22780 ft 437 kts 253°
2026-05-01 09:56 20.60276 -160.18523 22904 ft 445 kts 253°
2026-05-01 09:56 20.59231 -160.21658 23089 ft 451 kts 253°
2026-05-01 09:56 20.58185 -160.24828 23439 ft 453 kts 253°
2026-05-01 09:57 20.57144 -160.28009 23799 ft 455 kts 253°
2026-05-01 09:57 20.56101 -160.31214 24123 ft 457 kts 253°
2026-05-01 09:57 20.55061 -160.34426 24459 ft 459 kts 253°
2026-05-01 09:57 20.54017 -160.37650 24800 ft 461 kts 253°
2026-05-01 09:58 20.52968 -160.40891 25134 ft 463 kts 253°
2026-05-01 09:58 20.51928 -160.44100 25468 ft 465 kts 253°
2026-05-01 09:58 20.50872 -160.47363 25815 ft 466 kts 253°
2026-05-01 09:58 20.49815 -160.50645 26145 ft 468 kts 253°
2026-05-01 09:59 20.48760 -160.53939 26481 ft 470 kts 253°
2026-05-01 09:59 20.47704 -160.57244 26807 ft 472 kts 253°
2026-05-01 09:59 20.46645 -160.60566 27125 ft 474 kts 253°
2026-05-01 09:59 20.45582 -160.63899 27451 ft 476 kts 253°
2026-05-01 10:00 20.44516 -160.67240 27777 ft 477 kts 253°
2026-05-01 10:00 20.43444 -160.70595 28090 ft 479 kts 253°
2026-05-01 10:00 20.42368 -160.73963 28398 ft 481 kts 253°
2026-05-01 10:00 20.41286 -160.77345 28693 ft 483 kts 253°
2026-05-01 10:01 20.40196 -160.80730 28998 ft 484 kts 253°
2026-05-01 10:01 20.39092 -160.84128 29297 ft 486 kts 253°
2026-05-01 10:01 20.37973 -160.87538 29584 ft 488 kts 252°
2026-05-01 10:01 20.36719 -160.90906 29850 ft 491 kts 247°
2026-05-01 10:02 20.35091 -160.94117 30128 ft 495 kts 238°
2026-05-01 10:02 20.32988 -160.97024 30426 ft 497 kts 229°
2026-05-01 10:02 20.30451 -160.99527 30725 ft 498 kts 220°
2026-05-01 10:02 20.27650 -161.01705 31015 ft 499 kts 216°
2026-05-01 10:03 20.25739 -161.03057 31208 ft 498 kts 214°
2026-05-01 10:03 20.21844 -161.05730 31598 ft 497 kts 214°
2026-05-01 10:03 20.18949 -161.07740 31875 ft 496 kts 215°
2026-05-01 10:03 20.16081 -161.09775 32159 ft 495 kts 216°
2026-05-01 10:04 20.13236 -161.11830 32416 ft 494 kts 216°
2026-05-01 10:04 20.10401 -161.13900 32673 ft 493 kts 217°
2026-05-01 10:04 20.07584 -161.15967 32922 ft 492 kts 217°
2026-05-01 10:04 20.04810 -161.18005 33169 ft 491 kts 217°
2026-05-01 10:05 20.02003 -161.20066 33387 ft 490 kts 217°
2026-05-01 10:05 19.99200 -161.22120 33615 ft 489 kts 217°
2026-05-01 10:05 19.96402 -161.24170 33844 ft 488 kts 217°
2026-05-01 10:05 19.93660 -161.26260 33912 ft 483 kts 219°
2026-05-01 10:06 19.88350 -161.30707 33950 ft 486 kts 221°
2026-05-01 10:06 19.83119 -161.35245 33930 ft 486 kts 221°
2026-05-01 10:07 19.77873 -161.39770 33933 ft 486 kts 221°
2026-05-01 10:07 19.72604 -161.44286 33942 ft 485 kts 221°
2026-05-01 10:08 19.64718 -161.51024 33936 ft 485 kts 221°
2026-05-01 10:09 19.59459 -161.55512 33933 ft 485 kts 221°
2026-05-01 10:09 19.54240 -161.59964 33931 ft 484 kts 221°
2026-05-01 10:10 19.48987 -161.64442 33926 ft 484 kts 221°
2026-05-01 10:10 19.41115 -161.71143 33932 ft 483 kts 221°
2026-05-01 10:11 19.35872 -161.75602 33929 ft 483 kts 221°
2026-05-01 10:11 19.30626 -161.80060 33931 ft 483 kts 221°
2026-05-01 10:12 19.26267 -161.83753 33924 ft 483 kts 221°
2026-05-01 10:13 19.17509 -161.91168 33923 ft 483 kts 221°
2026-05-01 10:13 19.12263 -161.95612 33925 ft 482 kts 221°
2026-05-01 10:14 19.04431 -162.02241 33921 ft 482 kts 222°
2026-05-01 10:14 18.99196 -162.06667 33924 ft 482 kts 221°
2026-05-01 10:15 18.93960 -162.11090 33922 ft 481 kts 222°
2026-05-01 10:15 18.88731 -162.15504 33920 ft 481 kts 222°
2026-05-01 10:16 18.83508 -162.19909 33916 ft 480 kts 222°
2026-05-01 10:17 18.75676 -162.26507 33919 ft 480 kts 222°
2026-05-01 10:17 18.67869 -162.33076 33917 ft 479 kts 222°
2026-05-01 10:18 18.60044 -162.39643 33911 ft 479 kts 222°
2026-05-01 10:19 18.54824 -162.44017 33915 ft 478 kts 222°
2026-05-01 10:19 18.49620 -162.48380 33918 ft 478 kts 222°
2026-05-01 10:20 18.41817 -162.54920 33914 ft 477 kts 222°
2026-05-01 10:20 18.36648 -162.59248 33911 ft 477 kts 222°
2026-05-01 10:21 18.28857 -162.65765 33911 ft 476 kts 222°
2026-05-01 10:22 18.21068 -162.72271 33912 ft 476 kts 222°
2026-05-01 10:23 18.13300 -162.78754 33901 ft 475 kts 222°
2026-05-01 10:23 18.05537 -162.85223 33904 ft 474 kts 222°
2026-05-01 10:24 17.95239 -162.93787 33895 ft 473 kts 222°
2026-05-01 10:25 17.84924 -163.02348 33903 ft 472 kts 222°
2026-05-01 10:26 17.79776 -163.06622 33890 ft 471 kts 222°
2026-05-01 10:27 17.69500 -163.15143 33904 ft 470 kts 222°
2026-05-01 10:28 17.61804 -163.21517 33889 ft 473 kts 221°
2026-05-01 10:28 17.54059 -163.27923 33896 ft 472 kts 221°
2026-05-01 10:29 17.47196 -163.33594 33894 ft 471 kts 221°
2026-05-01 10:30 17.36900 -163.42090 33880 ft 471 kts 221°
2026-05-01 10:31 17.26605 -163.50560 33888 ft 470 kts 221°
2026-05-01 10:32 17.18890 -163.56905 33883 ft 470 kts 221°
2026-05-01 10:33 17.08653 -163.65320 33880 ft 469 kts 221°
2026-05-01 10:34 17.00955 -163.71639 33877 ft 468 kts 221°
2026-05-01 10:34 16.95827 -163.75845 33876 ft 468 kts 221°
2026-05-01 10:35 16.88142 -163.82143 33875 ft 468 kts 221°
2026-05-01 10:35 16.83024 -163.86333 33874 ft 467 kts 221°
2026-05-01 10:36 16.75351 -163.92609 33869 ft 467 kts 221°
2026-05-01 10:37 16.70230 -163.96795 33868 ft 467 kts 221°
2026-05-01 10:37 16.62595 -164.03019 33870 ft 466 kts 221°
2026-05-01 10:38 16.57481 -164.07185 33869 ft 466 kts 221°
2026-05-01 10:38 16.52371 -164.11350 33867 ft 466 kts 221°
2026-05-01 10:39 16.47266 -164.15509 33863 ft 466 kts 221°
2026-05-01 10:39 16.42163 -164.19665 33863 ft 466 kts 221°
2026-05-01 10:40 16.37059 -164.23817 33863 ft 465 kts 221°
2026-05-01 10:40 16.31952 -164.27969 33862 ft 465 kts 221°
2026-05-01 10:41 16.26846 -164.32118 33861 ft 465 kts 221°
2026-05-01 10:42 16.19190 -164.38333 33860 ft 465 kts 221°
2026-05-01 10:42 16.14097 -164.42464 33860 ft 464 kts 221°
2026-05-01 10:43 16.09035 -164.46568 33857 ft 464 kts 221°
2026-05-01 10:43 16.03938 -164.50697 33859 ft 464 kts 221°
2026-05-01 10:44 15.98842 -164.54817 33852 ft 464 kts 221°
2026-05-01 10:44 15.93749 -164.58929 33852 ft 463 kts 221°
2026-05-01 10:45 15.88689 -164.63016 33852 ft 463 kts 221°
2026-05-01 10:45 15.83603 -164.67125 33850 ft 463 kts 221°
2026-05-01 10:46 15.78520 -164.71230 33848 ft 463 kts 221°
2026-05-01 10:46 15.73436 -164.75332 33848 ft 462 kts 221°
2026-05-01 10:47 15.68356 -164.79428 33850 ft 462 kts 221°
2026-05-01 10:47 15.63281 -164.83517 33848 ft 462 kts 221°
2026-05-01 10:48 15.58200 -164.87609 33847 ft 462 kts 221°
2026-05-01 10:48 15.53124 -164.91694 33850 ft 462 kts 221°
2026-05-01 10:49 15.48077 -164.95754 33843 ft 462 kts 221°
2026-05-01 10:49 15.43002 -164.99833 33846 ft 462 kts 221°
2026-05-01 10:50 15.37920 -165.03915 33840 ft 462 kts 221°
2026-05-01 10:50 15.32834 -165.07992 33838 ft 462 kts 221°
2026-05-01 10:51 15.27739 -165.12072 33841 ft 462 kts 221°
2026-05-01 10:51 15.22694 -165.16114 33837 ft 462 kts 221°
2026-05-01 10:52 15.17609 -165.20188 33840 ft 462 kts 221°
2026-05-01 10:52 15.12526 -165.24258 33840 ft 462 kts 221°
2026-05-01 10:53 15.07436 -165.28331 33836 ft 462 kts 221°
2026-05-01 10:53 15.02349 -165.32400 33837 ft 462 kts 221°
2026-05-01 10:54 14.97264 -165.36464 33839 ft 462 kts 221°
2026-05-01 10:54 14.92177 -165.40527 33830 ft 462 kts 221°
2026-05-01 10:55 14.87123 -165.44562 33838 ft 462 kts 221°
2026-05-01 10:55 14.82030 -165.48624 33836 ft 462 kts 221°
2026-05-01 10:56 14.76942 -165.52681 33828 ft 462 kts 221°
2026-05-01 10:56 14.71848 -165.56740 33829 ft 462 kts 221°
2026-05-01 10:57 14.66749 -165.60795 33829 ft 462 kts 221°
2026-05-01 10:57 14.61656 -165.64841 33826 ft 462 kts 221°
2026-05-01 10:58 14.56589 -165.68868 33826 ft 462 kts 221°
2026-05-01 10:58 14.51497 -165.72916 33822 ft 462 kts 221°
2026-05-01 10:59 14.46400 -165.76965 33820 ft 462 kts 221°
2026-05-01 10:59 14.41311 -165.81006 33820 ft 462 kts 221°
2026-05-01 11:00 14.36215 -165.85049 33822 ft 461 kts 221°
2026-05-01 11:00 14.31159 -165.89059 33815 ft 461 kts 221°
2026-05-01 11:01 14.26070 -165.93092 33821 ft 461 kts 221°
2026-05-01 11:01 14.20982 -165.97122 33817 ft 461 kts 221°
2026-05-01 11:02 14.15894 -166.01149 33813 ft 461 kts 221°
2026-05-01 11:02 14.10804 -166.05176 33816 ft 461 kts 221°
2026-05-01 11:03 14.05718 -166.09198 33814 ft 461 kts 221°
2026-05-01 11:03 14.00631 -166.13213 33815 ft 461 kts 221°
2026-05-01 11:04 13.95540 -166.17227 33809 ft 460 kts 221°
2026-05-01 11:04 13.90456 -166.21238 33807 ft 460 kts 221°
2026-05-01 11:05 13.85372 -166.25248 33809 ft 460 kts 221°
2026-05-01 11:05 13.80327 -166.29226 33804 ft 460 kts 221°
2026-05-01 11:06 13.75246 -166.33231 33809 ft 460 kts 221°
2026-05-01 11:06 13.70168 -166.37230 33809 ft 460 kts 221°
2026-05-01 11:07 13.62554 -166.43222 33803 ft 459 kts 221°
2026-05-01 11:07 13.57476 -166.47216 33807 ft 459 kts 221°
2026-05-01 11:08 13.52397 -166.51208 33803 ft 459 kts 221°
2026-05-01 11:09 13.44811 -166.57167 33800 ft 459 kts 221°
2026-05-01 11:09 13.39734 -166.61152 33795 ft 459 kts 221°
2026-05-01 11:10 13.32112 -166.67123 33801 ft 459 kts 221°
2026-05-01 11:10 13.27029 -166.71104 33795 ft 459 kts 221°
2026-05-01 11:11 13.21950 -166.75081 33795 ft 459 kts 221°
2026-05-01 11:11 13.16874 -166.79056 33799 ft 459 kts 221°
2026-05-01 11:12 13.11802 -166.83026 33799 ft 458 kts 221°
2026-05-01 11:12 13.06724 -166.86998 33793 ft 458 kts 221°
2026-05-01 11:13 13.01648 -166.90967 33795 ft 458 kts 221°
2026-05-01 11:13 12.96605 -166.94907 33795 ft 458 kts 221°
2026-05-01 11:14 12.91535 -166.98867 33795 ft 458 kts 221°
2026-05-01 11:14 12.86472 -167.02819 33794 ft 457 kts 221°
2026-05-01 11:15 12.81407 -167.06770 33791 ft 457 kts 221°
2026-05-01 11:15 12.76343 -167.10719 33794 ft 457 kts 221°
2026-05-01 11:16 12.71286 -167.14661 33787 ft 456 kts 221°
2026-05-01 11:16 12.66233 -167.18590 33790 ft 455 kts 221°
2026-05-01 11:17 12.61221 -167.22488 33788 ft 455 kts 221°
2026-05-01 11:17 12.56179 -167.26410 33786 ft 455 kts 221°
2026-05-01 11:18 12.51142 -167.30328 33785 ft 454 kts 221°
2026-05-01 11:18 12.46115 -167.34237 33786 ft 453 kts 221°
2026-05-01 11:19 12.41092 -167.38140 33782 ft 453 kts 221°
2026-05-01 11:19 12.36918 -167.41381 33781 ft 452 kts 221°
2026-05-01 11:20 12.31907 -167.45271 33791 ft 452 kts 221°
2026-05-01 11:20 12.26896 -167.49160 33783 ft 451 kts 221°
2026-05-01 11:21 12.21901 -167.53034 33787 ft 451 kts 222°
2026-05-01 11:21 12.16901 -167.56910 33779 ft 451 kts 222°
2026-05-01 11:22 12.11901 -167.60784 33778 ft 450 kts 222°
2026-05-01 11:22 12.06940 -167.64626 33771 ft 450 kts 222°
2026-05-01 11:23 12.01940 -167.68493 33777 ft 450 kts 221°
2026-05-01 11:23 11.96949 -167.72348 33772 ft 449 kts 221°
2026-05-01 11:24 11.91967 -167.76199 33774 ft 449 kts 222°
2026-05-01 11:25 11.84503 -167.81968 33777 ft 448 kts 222°
2026-05-01 11:25 11.77071 -167.87708 33769 ft 448 kts 222°
2026-05-01 11:26 11.69607 -167.93469 33770 ft 448 kts 222°
2026-05-01 11:27 11.64626 -167.97311 33767 ft 448 kts 222°
2026-05-01 11:27 11.59649 -168.01149 33771 ft 449 kts 222°
2026-05-01 11:28 11.54667 -168.04988 33768 ft 449 kts 221°
2026-05-01 11:28 11.49715 -168.08802 33767 ft 449 kts 221°
2026-05-01 11:29 11.42245 -168.14553 33764 ft 449 kts 221°
2026-05-01 11:30 11.34753 -168.20315 33762 ft 450 kts 221°
2026-05-01 11:30 11.29753 -168.24153 33766 ft 450 kts 221°
2026-05-01 11:31 11.24749 -168.27998 33762 ft 450 kts 221°
2026-05-01 11:31 11.19741 -168.31844 33760 ft 450 kts 221°
2026-05-01 11:32 11.14764 -168.35667 33756 ft 451 kts 221°
2026-05-01 11:32 11.09753 -168.39513 33756 ft 451 kts 221°
2026-05-01 11:33 11.04742 -168.43358 33756 ft 451 kts 221°
2026-05-01 11:33 10.99719 -168.47210 33747 ft 452 kts 221°
2026-05-01 11:34 10.94682 -168.51071 33747 ft 453 kts 221°
2026-05-01 11:34 10.89645 -168.54930 33749 ft 454 kts 221°
2026-05-01 11:35 10.84601 -168.58793 33750 ft 454 kts 221°
2026-05-01 11:35 10.79548 -168.62662 33752 ft 455 kts 221°
2026-05-01 11:36 10.74483 -168.66538 33746 ft 455 kts 220°
2026-05-01 11:36 10.69415 -168.70413 33743 ft 455 kts 220°
2026-05-01 11:37 10.64380 -168.74256 33741 ft 456 kts 220°
2026-05-01 11:37 10.59313 -168.78126 33744 ft 456 kts 220°
2026-05-01 11:38 10.54245 -168.81997 33741 ft 456 kts 220°
2026-05-01 11:38 10.49165 -168.85877 33739 ft 456 kts 220°
2026-05-01 11:39 10.44091 -168.89750 33741 ft 456 kts 220°
2026-05-01 11:39 10.39017 -168.93621 33738 ft 456 kts 220°
2026-05-01 11:40 10.33935 -168.97497 33736 ft 456 kts 220°
2026-05-01 11:40 10.28855 -169.01370 33741 ft 456 kts 220°
2026-05-01 11:41 10.23800 -169.05222 33737 ft 457 kts 220°
2026-05-01 11:41 10.18710 -169.09099 33737 ft 458 kts 220°
2026-05-01 11:42 10.13609 -169.12983 33736 ft 458 kts 220°
2026-05-01 11:42 10.08503 -169.16869 33738 ft 459 kts 220°
2026-05-01 11:43 10.03389 -169.20759 33733 ft 460 kts 220°
2026-05-01 11:43 9.98262 -169.24653 33729 ft 460 kts 219°
2026-05-01 11:44 9.90594 -169.30478 33729 ft 461 kts 219°
2026-05-01 11:44 9.85456 -169.34382 33732 ft 462 kts 219°
2026-05-01 11:45 9.80291 -169.38304 33731 ft 463 kts 219°
2026-05-01 11:45 9.75128 -169.42224 33727 ft 463 kts 219°
2026-05-01 11:46 9.69960 -169.46146 33725 ft 464 kts 219°
2026-05-01 11:46 9.64784 -169.50072 33724 ft 465 kts 219°
2026-05-01 11:47 9.59595 -169.54006 33728 ft 466 kts 219°
2026-05-01 11:47 9.54434 -169.57918 33724 ft 467 kts 219°
2026-05-01 11:48 9.49224 -169.61865 33722 ft 467 kts 219°
2026-05-01 11:48 9.44021 -169.65806 33718 ft 467 kts 219°
2026-05-01 11:49 9.38811 -169.69750 33720 ft 467 kts 219°
2026-05-01 11:49 9.33605 -169.73685 33720 ft 467 kts 219°
2026-05-01 11:50 9.28400 -169.77619 33718 ft 466 kts 219°
2026-05-01 11:50 9.23202 -169.81549 33713 ft 466 kts 219°
2026-05-01 11:51 9.18007 -169.85476 33714 ft 466 kts 219°
2026-05-01 11:51 9.12844 -169.89378 33720 ft 466 kts 219°
2026-05-01 11:52 9.07652 -169.93300 33714 ft 466 kts 219°
2026-05-01 11:52 9.02457 -169.97222 33718 ft 466 kts 219°
2026-05-01 11:53 8.97258 -170.01147 33712 ft 466 kts 219°
2026-05-01 11:53 8.92047 -170.05078 33713 ft 467 kts 219°
2026-05-01 11:54 8.86837 -170.09008 33709 ft 467 kts 219°
2026-05-01 11:54 8.81626 -170.12937 33710 ft 467 kts 219°
2026-05-01 11:55 8.76409 -170.16869 33719 ft 467 kts 219°
2026-05-01 11:55 8.71196 -170.20797 33701 ft 467 kts 219°
2026-05-01 11:56 8.65982 -170.24720 33715 ft 467 kts 219°
2026-05-01 11:56 8.60805 -170.28614 33713 ft 467 kts 219°
2026-05-01 11:57 8.55602 -170.32530 33705 ft 466 kts 219°
2026-05-01 11:57 8.50400 -170.36444 33708 ft 466 kts 220°
2026-05-01 11:58 8.45201 -170.40355 33705 ft 466 kts 220°
2026-05-01 11:59 8.37397 -170.46222 33706 ft 466 kts 220°
2026-05-01 11:59 8.32201 -170.50127 33701 ft 465 kts 220°
2026-05-01 12:00 8.24410 -170.55980 33699 ft 465 kts 220°
2026-05-01 12:01 8.16642 -170.61812 33701 ft 466 kts 220°
2026-05-01 12:01 8.11432 -170.65723 33705 ft 466 kts 219°
2026-05-01 12:02 8.06220 -170.69633 33703 ft 467 kts 219°
2026-05-01 12:02 8.01004 -170.73543 33700 ft 467 kts 219°
2026-05-01 12:03 7.95775 -170.77460 33696 ft 467 kts 219°
2026-05-01 12:03 7.90550 -170.81374 33698 ft 468 kts 219°
2026-05-01 12:04 7.85356 -170.85266 33699 ft 468 kts 219°
2026-05-01 12:04 7.80132 -170.89179 33694 ft 468 kts 219°
2026-05-01 12:05 7.74909 -170.93091 33692 ft 468 kts 219°
2026-05-01 12:05 7.67066 -170.98961 33694 ft 468 kts 219°
2026-05-01 12:06 7.61839 -171.02873 33693 ft 468 kts 219°
2026-05-01 12:06 7.56610 -171.06784 33694 ft 468 kts 219°
2026-05-01 12:07 7.51377 -171.10697 33694 ft 468 kts 219°
2026-05-01 12:07 7.46142 -171.14611 33698 ft 469 kts 219°
2026-05-01 12:08 7.40902 -171.18527 33687 ft 469 kts 219°
2026-05-01 12:08 7.35697 -171.22415 33690 ft 468 kts 219°
2026-05-01 12:09 7.30463 -171.26320 33690 ft 468 kts 219°
2026-05-01 12:09 7.25228 -171.30227 33694 ft 468 kts 219°
2026-05-01 12:10 7.17383 -171.36082 33690 ft 468 kts 219°
2026-05-01 12:11 7.10421 -171.41277 33694 ft 468 kts 219°
2026-05-01 12:11 7.05188 -171.45180 33691 ft 468 kts 219°
2026-05-01 12:12 6.99955 -171.49082 33692 ft 468 kts 219°
2026-05-01 12:12 6.94720 -171.52984 33686 ft 468 kts 219°
2026-05-01 12:13 6.89484 -171.56886 33687 ft 468 kts 219°
2026-05-01 12:13 6.84244 -171.60790 33687 ft 469 kts 219°
2026-05-01 12:14 6.79006 -171.64691 33683 ft 469 kts 219°
2026-05-01 12:14 6.73763 -171.68595 33682 ft 469 kts 219°
2026-05-01 12:15 6.68510 -171.72505 33680 ft 470 kts 219°
2026-05-01 12:15 6.63284 -171.76391 33682 ft 470 kts 219°
2026-05-01 12:16 6.58017 -171.80308 33680 ft 471 kts 219°
2026-05-01 12:16 6.52753 -171.84222 33681 ft 471 kts 219°
2026-05-01 12:17 6.47479 -171.88144 33681 ft 472 kts 219°
2026-05-01 12:17 6.42199 -171.92070 33679 ft 472 kts 218°
2026-05-01 12:18 6.36911 -171.96000 33681 ft 472 kts 218°
2026-05-01 12:18 6.31624 -171.99928 33679 ft 473 kts 218°
2026-05-01 12:19 6.26374 -172.03828 33681 ft 473 kts 218°
2026-05-01 12:19 6.21079 -172.07760 33681 ft 473 kts 218°
2026-05-01 12:20 6.15782 -172.11693 33680 ft 473 kts 218°
2026-05-01 12:20 6.10485 -172.15625 33677 ft 473 kts 218°
2026-05-01 12:21 6.05186 -172.19557 33676 ft 473 kts 218°
2026-05-01 12:21 5.99880 -172.23493 33679 ft 474 kts 218°
2026-05-01 12:22 5.94610 -172.27399 33673 ft 474 kts 218°
2026-05-01 12:22 5.89297 -172.31337 33675 ft 474 kts 218°
2026-05-01 12:23 5.83984 -172.35276 33679 ft 474 kts 218°
2026-05-01 12:23 5.78672 -172.39213 33677 ft 474 kts 218°
2026-05-01 12:24 5.73360 -172.43150 33677 ft 474 kts 218°
2026-05-01 12:24 5.68044 -172.47088 33678 ft 474 kts 218°
2026-05-01 12:25 5.60081 -172.52986 33671 ft 474 kts 218°
2026-05-01 12:26 5.54802 -172.56895 33677 ft 475 kts 218°
2026-05-01 12:26 5.46829 -172.62796 33672 ft 475 kts 218°
2026-05-01 12:27 5.38849 -172.68701 33672 ft 475 kts 218°
2026-05-01 12:28 5.30868 -172.74603 33670 ft 475 kts 218°
2026-05-01 12:29 5.22890 -172.80500 33672 ft 475 kts 218°
2026-05-01 12:29 5.14904 -172.86404 33672 ft 475 kts 219°
2026-05-01 12:30 5.06957 -172.92277 33674 ft 475 kts 219°
2026-05-01 12:31 5.01646 -172.96202 33673 ft 474 kts 219°
2026-05-01 12:31 4.96332 -173.00127 33673 ft 474 kts 219°
2026-05-01 12:32 4.91020 -173.04050 33668 ft 474 kts 219°
2026-05-01 12:32 4.83053 -173.09933 33671 ft 474 kts 219°
2026-05-01 12:33 4.77737 -173.13857 33669 ft 474 kts 219°
2026-05-01 12:33 4.72430 -173.17773 33669 ft 474 kts 219°
2026-05-01 12:34 4.67125 -173.21687 33668 ft 473 kts 219°
2026-05-01 12:34 4.61853 -173.25574 33665 ft 473 kts 219°
2026-05-01 12:35 4.56550 -173.29485 33669 ft 473 kts 219°
2026-05-01 12:35 4.51251 -173.33393 33668 ft 472 kts 219°
2026-05-01 12:36 4.45954 -173.37299 33666 ft 472 kts 219°
2026-05-01 12:36 4.40667 -173.41197 33669 ft 471 kts 219°
2026-05-01 12:37 4.35383 -173.45092 33669 ft 471 kts 219°
2026-05-01 12:37 4.30108 -173.48979 33666 ft 470 kts 219°
2026-05-01 12:38 4.24881 -173.52830 33663 ft 469 kts 219°
2026-05-01 12:38 4.19627 -173.56701 33664 ft 469 kts 219°
2026-05-01 12:39 4.14372 -173.60572 33665 ft 469 kts 219°
2026-05-01 12:39 4.09110 -173.64448 33664 ft 469 kts 219°
2026-05-01 12:40 4.03855 -173.68318 33667 ft 469 kts 219°
2026-05-01 12:40 3.98597 -173.72188 33664 ft 469 kts 219°
2026-05-01 12:41 3.93327 -173.76066 33664 ft 469 kts 219°
2026-05-01 12:41 3.88061 -173.79940 33662 ft 469 kts 219°
2026-05-01 12:42 3.82830 -173.83790 33661 ft 470 kts 219°
2026-05-01 12:42 3.77559 -173.87669 33659 ft 470 kts 219°
2026-05-01 12:43 3.72286 -173.91548 33658 ft 470 kts 219°
2026-05-01 12:43 3.67003 -173.95434 33660 ft 470 kts 218°
2026-05-01 12:44 3.61761 -173.99289 33655 ft 471 kts 218°
2026-05-01 12:45 3.51203 -174.07053 33656 ft 471 kts 218°
2026-05-01 12:45 3.45923 -174.10935 33655 ft 471 kts 218°
2026-05-01 12:46 3.40633 -174.14823 33656 ft 471 kts 218°
2026-05-01 12:46 3.35344 -174.18710 33656 ft 471 kts 218°
2026-05-01 12:47 3.30053 -174.22597 33654 ft 471 kts 218°
2026-05-01 12:47 3.24799 -174.26456 33654 ft 471 kts 218°
2026-05-01 12:48 3.19509 -174.30342 33655 ft 471 kts 218°
2026-05-01 12:48 3.14223 -174.34225 33650 ft 471 kts 218°
2026-05-01 12:49 3.08941 -174.38105 33649 ft 471 kts 218°
2026-05-01 12:49 3.03647 -174.41993 33651 ft 471 kts 218°
2026-05-01 12:50 2.98368 -174.45870 33651 ft 471 kts 218°
2026-05-01 12:50 2.93085 -174.49749 33651 ft 471 kts 218°
2026-05-01 12:51 2.87808 -174.53623 33648 ft 471 kts 218°
2026-05-01 12:52 2.79918 -174.59415 33650 ft 471 kts 218°
2026-05-01 12:52 2.71988 -174.65235 33648 ft 471 kts 218°
2026-05-01 12:53 2.64065 -174.71048 33646 ft 471 kts 218°
2026-05-01 12:54 2.58779 -174.74925 33648 ft 471 kts 218°
2026-05-01 12:54 2.50898 -174.80706 33648 ft 470 kts 218°
2026-05-01 12:55 2.42983 -174.86512 33648 ft 471 kts 218°
2026-05-01 12:56 2.37706 -174.90383 33647 ft 470 kts 218°
2026-05-01 12:56 2.32424 -174.94257 33651 ft 470 kts 218°
2026-05-01 12:57 2.27147 -174.98126 33646 ft 471 kts 218°
2026-05-01 12:57 2.19230 -175.03932 33646 ft 471 kts 218°
2026-05-01 12:58 2.13951 -175.07802 33643 ft 471 kts 218°
2026-05-01 12:59 2.06033 -175.13607 33642 ft 471 kts 218°
2026-05-01 12:59 1.98107 -175.19416 33645 ft 471 kts 218°
2026-05-01 13:00 1.90182 -175.25223 33643 ft 471 kts 218°
2026-05-01 13:01 1.82254 -175.31033 33648 ft 471 kts 218°
2026-05-01 13:02 1.74354 -175.36821 33649 ft 471 kts 218°
2026-05-01 13:07 1.16917 -175.78892 33643 ft 474 kts 217°
2026-05-01 13:08 1.11598 -175.82788 33644 ft 474 kts 217°
2026-05-01 13:08 1.06280 -175.86682 33643 ft 474 kts 217°
2026-05-01 13:09 1.00952 -175.90584 33642 ft 474 kts 217°
2026-05-01 13:09 0.95627 -175.94483 33644 ft 474 kts 217°
2026-05-01 13:10 0.90301 -175.98382 33645 ft 474 kts 217°
2026-05-01 13:10 0.84968 -176.02287 33643 ft 475 kts 217°
2026-05-01 13:11 0.79681 -176.06157 33642 ft 475 kts 217°
2026-05-01 13:11 0.74340 -176.10068 33643 ft 475 kts 217°
2026-05-01 13:12 0.69009 -176.13971 33642 ft 475 kts 217°
2026-05-01 13:12 0.63681 -176.17871 33642 ft 475 kts 217°
2026-05-01 13:13 0.58344 -176.21778 33641 ft 475 kts 217°
2026-05-01 13:13 0.53016 -176.25678 33643 ft 475 kts 217°
2026-05-01 13:14 0.47685 -176.29581 33643 ft 475 kts 217°
2026-05-01 13:14 0.42388 -176.33459 33642 ft 475 kts 217°
2026-05-01 13:15 0.37064 -176.37356 33643 ft 475 kts 217°
2026-05-01 13:15 0.31733 -176.41259 33645 ft 475 kts 217°
2026-05-01 13:16 0.26403 -176.45160 33641 ft 475 kts 217°
2026-05-01 13:16 0.21072 -176.49062 33643 ft 475 kts 217°
2026-05-01 13:17 0.10413 -176.56865 33639 ft 475 kts 217°
2026-05-01 13:18 0.02415 -176.62719 33639 ft 475 kts 217°
2026-05-01 13:18 -0.02917 -176.66622 33642 ft 475 kts 217°
2026-05-01 13:19 -0.08222 -176.70506 33643 ft 476 kts 217°
2026-05-01 13:20 -0.16244 -176.76379 33636 ft 476 kts 217°
2026-05-01 13:20 -0.21591 -176.80293 33640 ft 477 kts 217°
2026-05-01 13:21 -0.29631 -176.86179 33638 ft 477 kts 217°
2026-05-01 13:21 -0.34994 -176.90105 33640 ft 478 kts 217°
2026-05-01 13:22 -0.40358 -176.94032 33639 ft 478 kts 217°
2026-05-01 13:22 -0.45726 -176.97962 33640 ft 478 kts 217°
2026-05-01 13:23 -0.51109 -177.01904 33638 ft 479 kts 217°
2026-05-01 13:23 -0.56451 -177.05815 33636 ft 479 kts 217°
2026-05-01 13:24 -0.61829 -177.09753 33642 ft 479 kts 217°
2026-05-01 13:25 -0.69910 -177.15669 33637 ft 480 kts 217°
2026-05-01 13:25 -0.75299 -177.19616 33640 ft 480 kts 217°
2026-05-01 13:26 -0.80689 -177.23563 33637 ft 480 kts 217°
2026-05-01 13:26 -0.86041 -177.27483 33636 ft 480 kts 217°
2026-05-01 13:27 -0.91432 -177.31431 33635 ft 480 kts 217°
2026-05-01 13:27 -0.99530 -177.37362 33636 ft 481 kts 217°
2026-05-01 13:28 -1.07633 -177.43297 33637 ft 481 kts 217°
2026-05-01 13:29 -1.18438 -177.51212 33637 ft 482 kts 216°
2026-05-01 13:31 -1.34669 -177.63102 33638 ft 482 kts 216°
2026-05-01 13:32 -1.48206 -177.73022 33638 ft 483 kts 216°
2026-05-01 13:33 -1.61714 -177.82923 33636 ft 483 kts 216°
2026-05-01 13:34 -1.72556 -177.90870 33635 ft 482 kts 216°
2026-05-01 13:35 -1.80681 -177.96827 33636 ft 483 kts 216°
2026-05-01 13:36 -1.88813 -178.02789 33637 ft 483 kts 216°
2026-05-01 13:36 -1.96952 -178.08758 33637 ft 483 kts 216°
2026-05-01 13:37 -2.02344 -178.12712 33638 ft 484 kts 216°
2026-05-01 13:37 -2.07775 -178.16695 33635 ft 483 kts 217°
2026-05-01 13:38 -2.15899 -178.22656 33633 ft 483 kts 216°
2026-05-01 13:39 -2.21316 -178.26630 33634 ft 483 kts 216°
2026-05-01 13:39 -2.26734 -178.30606 33635 ft 483 kts 216°
2026-05-01 13:40 -2.32161 -178.34588 33638 ft 484 kts 216°
2026-05-01 13:40 -2.37588 -178.38571 33637 ft 484 kts 216°
2026-05-01 13:41 -2.43022 -178.42559 33638 ft 485 kts 216°
2026-05-01 13:41 -2.48461 -178.46551 33634 ft 485 kts 216°
2026-05-01 13:42 -2.53861 -178.50515 33632 ft 485 kts 216°
2026-05-01 13:42 -2.59302 -178.54510 33632 ft 485 kts 216°
2026-05-01 13:43 -2.64739 -178.58502 33633 ft 485 kts 216°
2026-05-01 13:43 -2.70185 -178.62501 33634 ft 485 kts 216°
2026-05-01 13:44 -2.75624 -178.66496 33634 ft 485 kts 216°
2026-05-01 13:44 -2.81068 -178.70496 33636 ft 486 kts 216°
2026-05-01 13:45 -2.86517 -178.74500 33636 ft 486 kts 216°
2026-05-01 13:45 -2.91966 -178.78505 33636 ft 486 kts 216°
2026-05-01 13:46 -2.97418 -178.82511 33635 ft 486 kts 216°
2026-05-01 13:46 -3.02837 -178.86493 33635 ft 486 kts 216°
2026-05-01 13:47 -3.08284 -178.90497 33634 ft 486 kts 216°
2026-05-01 13:47 -3.13730 -178.94500 33634 ft 486 kts 216°
2026-05-01 13:48 -3.19180 -178.98508 33636 ft 486 kts 216°
2026-05-01 13:48 -3.24634 -179.02518 33634 ft 486 kts 216°
2026-05-01 13:49 -3.30081 -179.06524 33632 ft 486 kts 216°
2026-05-01 13:49 -3.35543 -179.10542 33632 ft 486 kts 216°
2026-05-01 13:50 -3.40997 -179.14554 33634 ft 487 kts 216°
2026-05-01 13:50 -3.46456 -179.18572 33634 ft 487 kts 216°
2026-05-01 13:51 -3.51873 -179.22560 33632 ft 487 kts 216°
2026-05-01 13:51 -3.57336 -179.26581 33631 ft 486 kts 216°
2026-05-01 13:52 -3.62791 -179.30596 33630 ft 486 kts 216°
2026-05-01 13:52 -3.67318 -179.33930 33631 ft 486 kts 216°
2026-05-01 13:53 -3.72768 -179.37943 33625 ft 487 kts 216°
2026-05-01 13:53 -3.80957 -179.43974 33627 ft 487 kts 216°
2026-05-01 13:54 -3.86420 -179.47999 33632 ft 487 kts 216°
2026-05-01 13:54 -3.91877 -179.52019 33634 ft 487 kts 216°
2026-05-01 13:55 -3.97333 -179.56040 33633 ft 487 kts 216°
2026-05-01 13:55 -4.02790 -179.60062 33632 ft 487 kts 216°
2026-05-01 13:56 -4.08249 -179.64086 33625 ft 487 kts 216°
2026-05-01 13:56 -4.13707 -179.68112 33628 ft 487 kts 217°
2026-05-01 13:57 -4.19118 -179.72104 33629 ft 486 kts 217°
2026-05-01 13:57 -4.24572 -179.76127 33629 ft 486 kts 217°
2026-05-01 13:58 -4.30022 -179.80149 33629 ft 486 kts 217°
2026-05-01 13:58 -4.35469 -179.84168 33631 ft 486 kts 217°
2026-05-01 13:59 -4.40912 -179.88185 33626 ft 486 kts 217°
2026-05-01 13:59 -4.46357 -179.92204 33628 ft 485 kts 217°
2026-05-01 14:00 -4.51797 -179.96221 33628 ft 486 kts 217°
2026-05-01 14:00 -4.57235 179.99764 33627 ft 486 kts 217°
2026-05-01 14:01 -4.62674 179.95747 33631 ft 486 kts 217°
2026-05-01 14:01 -4.68115 179.91727 33632 ft 486 kts 217°
2026-05-01 14:02 -4.73555 179.87708 33629 ft 486 kts 217°
2026-05-01 14:02 -4.78965 179.83709 33629 ft 486 kts 217°
2026-05-01 14:03 -4.84401 179.79688 33631 ft 486 kts 217°
2026-05-01 14:03 -4.89836 179.75668 33630 ft 486 kts 217°
2026-05-01 14:04 -4.95274 179.71646 33627 ft 486 kts 217°
2026-05-01 14:04 -5.00714 179.67622 33628 ft 486 kts 217°
2026-05-01 14:05 -5.06158 179.63594 33629 ft 486 kts 217°
2026-05-01 14:05 -5.11604 179.59564 33632 ft 486 kts 217°
2026-05-01 14:06 -5.17045 179.55536 33626 ft 486 kts 217°
2026-05-01 14:06 -5.22456 179.51530 33628 ft 486 kts 217°
2026-05-01 14:07 -5.27932 179.47475 33628 ft 486 kts 217°
2026-05-01 14:08 -5.36055 179.41458 33635 ft 486 kts 217°
2026-05-01 14:08 -5.41493 179.37429 33632 ft 486 kts 217°
2026-05-01 14:09 -5.46928 179.33398 33628 ft 486 kts 217°
2026-05-01 14:09 -5.52368 179.29363 33625 ft 486 kts 217°
2026-05-01 14:10 -5.57811 179.25326 33629 ft 486 kts 217°
2026-05-01 14:10 -5.63255 179.21288 33628 ft 486 kts 217°
2026-05-01 14:11 -5.68687 179.17258 33631 ft 486 kts 217°
2026-05-01 14:11 -5.76807 179.11232 33631 ft 486 kts 217°
2026-05-01 14:12 -5.82235 179.07202 33631 ft 485 kts 217°
2026-05-01 14:12 -5.87668 179.03168 33631 ft 485 kts 217°
2026-05-01 14:13 -5.92186 178.99813 33637 ft 485 kts 217°
2026-05-01 14:13 -5.98537 178.95094 33632 ft 485 kts 217°
2026-05-01 14:14 -6.03969 178.91058 33632 ft 485 kts 217°
2026-05-01 14:14 -6.09400 178.87021 33629 ft 485 kts 217°
2026-05-01 14:15 -6.14783 178.83016 33632 ft 485 kts 217°
2026-05-01 14:15 -6.20259 178.78941 33635 ft 485 kts 217°
2026-05-01 14:16 -6.25646 178.74933 33637 ft 485 kts 217°
2026-05-01 14:16 -6.31079 178.70889 33630 ft 485 kts 217°
2026-05-01 14:17 -6.36512 178.66845 33629 ft 485 kts 217°
2026-05-01 14:17 -6.41941 178.62803 33632 ft 485 kts 217°
2026-05-01 14:18 -6.47369 178.58760 33634 ft 485 kts 217°
2026-05-01 14:18 -6.51877 178.55402 33638 ft 485 kts 217°
2026-05-01 14:19 -6.58183 178.50704 33635 ft 485 kts 217°
2026-05-01 14:19 -6.63607 178.46661 33638 ft 485 kts 217°
2026-05-01 14:20 -6.71747 178.40590 33635 ft 485 kts 217°
2026-05-01 14:21 -6.77164 178.36550 33634 ft 485 kts 217°
2026-05-01 14:21 -6.82582 178.32504 33632 ft 485 kts 217°
2026-05-01 14:22 -6.90716 178.26429 33633 ft 485 kts 217°
2026-05-01 14:22 -6.96102 178.22407 33634 ft 485 kts 217°
2026-05-01 14:23 -7.01532 178.18350 33633 ft 485 kts 217°
2026-05-01 14:23 -7.06947 178.14304 33635 ft 485 kts 217°
2026-05-01 14:24 -7.12373 178.10249 33635 ft 485 kts 217°
2026-05-01 14:24 -7.17793 178.06197 33638 ft 485 kts 217°
2026-05-01 14:25 -7.23177 178.02170 33635 ft 485 kts 217°
2026-05-01 14:25 -7.28593 177.98118 33636 ft 485 kts 217°
2026-05-01 14:26 -7.36718 177.92037 33636 ft 485 kts 217°
2026-05-01 14:27 -7.42143 177.87976 33637 ft 485 kts 217°
2026-05-01 14:27 -7.47557 177.83918 33637 ft 485 kts 217°
2026-05-01 14:28 -7.55680 177.77827 33639 ft 485 kts 218°
2026-05-01 14:28 -7.61091 177.73771 33640 ft 485 kts 218°
2026-05-01 14:29 -7.66502 177.69713 33642 ft 485 kts 217°
2026-05-01 14:30 -7.77325 177.61592 33637 ft 485 kts 218°
2026-05-01 14:31 -7.85443 177.55498 33640 ft 485 kts 218°
2026-05-01 14:31 -7.90853 177.51436 33639 ft 485 kts 218°
2026-05-01 14:32 -7.96267 177.47369 33638 ft 485 kts 218°
2026-05-01 14:32 -8.01679 177.43301 33640 ft 485 kts 218°
2026-05-01 14:33 -8.07061 177.39255 33635 ft 485 kts 218°
2026-05-01 14:33 -8.12474 177.35184 33638 ft 485 kts 218°
2026-05-01 14:34 -8.17884 177.31110 33636 ft 485 kts 218°
2026-05-01 14:34 -8.23294 177.27036 33640 ft 485 kts 218°
2026-05-01 14:35 -8.28705 177.22960 33633 ft 485 kts 218°
2026-05-01 14:35 -8.34124 177.18879 33637 ft 485 kts 218°
2026-05-01 14:36 -8.39537 177.14801 33638 ft 486 kts 218°
2026-05-01 14:36 -8.44949 177.10722 33638 ft 485 kts 218°
2026-05-01 14:37 -8.50358 177.06643 33643 ft 486 kts 218°
2026-05-01 14:37 -8.55773 177.02559 33649 ft 485 kts 218°
2026-05-01 14:38 -8.61157 176.98497 33647 ft 485 kts 218°
2026-05-01 14:38 -8.66566 176.94414 33644 ft 485 kts 218°
2026-05-01 14:39 -8.71976 176.90330 33643 ft 485 kts 218°
2026-05-01 14:39 -8.77379 176.86247 33642 ft 485 kts 218°
2026-05-01 14:40 -8.82780 176.82163 33641 ft 485 kts 218°
2026-05-01 14:40 -8.88184 176.78074 33642 ft 485 kts 218°
2026-05-01 14:41 -8.92674 176.74677 33648 ft 485 kts 218°
2026-05-01 14:41 -8.98990 176.69897 33646 ft 485 kts 218°
2026-05-01 14:42 -9.03483 176.66498 33648 ft 485 kts 218°
2026-05-01 14:42 -9.08893 176.62403 33645 ft 485 kts 218°
2026-05-01 14:43 -9.14295 176.58311 33645 ft 485 kts 218°
2026-05-01 14:43 -9.19700 176.54215 33646 ft 485 kts 218°
2026-05-01 14:44 -9.25071 176.50143 33646 ft 485 kts 218°
2026-05-01 14:44 -9.33174 176.43998 33649 ft 485 kts 218°
2026-05-01 14:45 -9.41278 176.37848 33648 ft 485 kts 218°
2026-05-01 14:46 -9.46678 176.33747 33650 ft 485 kts 219°
2026-05-01 14:46 -9.54763 176.27598 33649 ft 484 kts 219°
2026-05-01 14:47 -9.60152 176.23500 33647 ft 484 kts 219°
2026-05-01 14:48 -9.68206 176.17375 33653 ft 484 kts 219°
2026-05-01 14:48 -9.76283 176.11229 33649 ft 484 kts 219°
2026-05-01 14:49 -9.87047 176.03031 33648 ft 483 kts 219°
2026-05-01 14:50 -9.97773 175.94857 33649 ft 483 kts 219°
2026-05-01 14:51 -10.05833 175.88709 33649 ft 483 kts 219°
2026-05-01 14:52 -10.13886 175.82561 33648 ft 483 kts 219°
2026-05-01 14:53 -10.21943 175.76400 33648 ft 483 kts 219°
2026-05-01 14:53 -10.27314 175.72294 33646 ft 483 kts 219°
2026-05-01 14:54 -10.32647 175.68216 33648 ft 482 kts 219°
2026-05-01 14:54 -10.38009 175.64115 33649 ft 482 kts 219°
2026-05-01 14:55 -10.43377 175.60007 33649 ft 482 kts 219°
2026-05-01 14:55 -10.48736 175.55904 33655 ft 482 kts 219°
2026-05-01 14:56 -10.54090 175.51803 33652 ft 482 kts 219°
2026-05-01 14:56 -10.59425 175.47715 33653 ft 482 kts 219°
2026-05-01 14:57 -10.64777 175.43612 33650 ft 482 kts 219°
2026-05-01 14:57 -10.72807 175.37452 33653 ft 482 kts 219°
2026-05-01 14:58 -10.78159 175.33345 33653 ft 482 kts 219°
2026-05-01 14:58 -10.83514 175.29227 33653 ft 482 kts 219°
2026-05-01 14:59 -10.88858 175.25118 33654 ft 482 kts 219°
2026-05-01 14:59 -10.94213 175.21000 33652 ft 482 kts 219°
2026-05-01 15:00 -11.02230 175.14834 33651 ft 481 kts 219°
2026-05-01 15:01 -11.07540 175.10747 33654 ft 481 kts 219°
2026-05-01 15:01 -11.12893 175.06626 33659 ft 481 kts 219°
2026-05-01 15:02 -11.18238 175.02508 33654 ft 481 kts 219°
2026-05-01 15:02 -11.23578 174.98393 33656 ft 481 kts 219°
2026-05-01 15:03 -11.28925 174.94270 33658 ft 481 kts 219°
2026-05-01 15:03 -11.34236 174.90173 33660 ft 482 kts 219°
2026-05-01 15:04 -11.39582 174.86048 33660 ft 482 kts 219°
2026-05-01 15:04 -11.44941 174.81909 33659 ft 482 kts 219°
2026-05-01 15:05 -11.50298 174.77765 33657 ft 483 kts 219°
2026-05-01 15:05 -11.55610 174.73654 33659 ft 483 kts 219°
2026-05-01 15:06 -11.60964 174.69512 33662 ft 483 kts 219°
2026-05-01 15:06 -11.66325 174.65363 33664 ft 484 kts 219°
2026-05-01 15:07 -11.71687 174.61212 33657 ft 484 kts 219°
2026-05-01 15:07 -11.77056 174.57054 33668 ft 484 kts 219°
2026-05-01 15:08 -11.82391 174.52919 33664 ft 484 kts 219°
2026-05-01 15:08 -11.87758 174.48758 33664 ft 484 kts 219°
2026-05-01 15:09 -11.93123 174.44596 33663 ft 484 kts 219°
2026-05-01 15:09 -11.98485 174.40434 33665 ft 484 kts 219°
2026-05-01 15:10 -12.03845 174.36272 33664 ft 484 kts 219°
2026-05-01 15:10 -12.11857 174.30046 33662 ft 484 kts 219°
2026-05-01 15:11 -12.19900 174.23782 33663 ft 484 kts 219°
2026-05-01 15:12 -12.25252 174.19613 33664 ft 484 kts 219°
2026-05-01 15:12 -12.33285 174.13357 33665 ft 484 kts 219°
2026-05-01 15:14 -12.46660 174.02929 33668 ft 483 kts 220°
2026-05-01 15:14 -12.54680 173.96670 33669 ft 483 kts 220°
2026-05-01 15:15 -12.65357 173.88329 33666 ft 483 kts 220°
2026-05-01 15:16 -12.75999 173.80006 33671 ft 482 kts 220°
2026-05-01 15:18 -12.89304 173.69575 33670 ft 481 kts 220°
2026-05-01 15:19 -12.99932 173.61241 33671 ft 480 kts 220°
2026-05-01 15:19 -13.07888 173.54997 33673 ft 480 kts 220°
2026-05-01 15:20 -13.15836 173.48753 33675 ft 479 kts 220°
2026-05-01 15:21 -13.21095 173.44619 33674 ft 479 kts 220°
2026-05-01 15:21 -13.26378 173.40463 33672 ft 478 kts 220°
2026-05-01 15:22 -13.34290 173.34236 33673 ft 478 kts 220°
2026-05-01 15:22 -13.39575 173.30074 33676 ft 478 kts 220°
2026-05-01 15:23 -13.44849 173.25917 33673 ft 478 kts 220°
2026-05-01 15:23 -13.50094 173.21773 33676 ft 478 kts 220°
2026-05-01 15:24 -13.55374 173.17602 33678 ft 478 kts 220°
2026-05-01 15:24 -13.60654 173.13431 33675 ft 478 kts 220°
2026-05-01 15:25 -13.65941 173.09254 33677 ft 479 kts 220°
2026-05-01 15:25 -13.71219 173.05083 33677 ft 479 kts 220°
2026-05-01 15:26 -13.76468 173.00930 33675 ft 478 kts 220°
2026-05-01 15:26 -13.81746 172.96754 33677 ft 478 kts 220°
2026-05-01 15:27 -13.87021 172.92576 33678 ft 478 kts 220°
2026-05-01 15:28 -13.94924 172.86313 33669 ft 478 kts 220°
2026-05-01 15:28 -14.00192 172.82135 33681 ft 478 kts 220°
2026-05-01 15:29 -14.08082 172.75873 33680 ft 477 kts 220°
2026-05-01 15:30 -14.17704 172.68219 33679 ft 477 kts 220°
2026-05-01 15:31 -14.34341 172.54974 33677 ft 477 kts 220°
2026-05-01 15:32 -14.44801 172.46637 33682 ft 476 kts 220°
2026-05-01 15:34 -14.59645 172.34787 33685 ft 475 kts 220°